[Date Prev][Date Next][Thread Prev][Thread Next] - [Date Index][Thread Index][Author Index]
2 Line ISS Keps 2-12
- Subject: [sarex] 2 Line ISS Keps 2-12
- From: "Dave Larsen PhD" <doc@xxxxxxxxxxx>
- Date: Tue, 12 Feb 2002 02:33:15 -0800
ISS
1 25544U 98067A 02043.21203203 .00066660 00000-0 77685-3 0 623
2 25544 51.6411 321.1806 0005696 65.7635 88.1930 15.61020701184532
----
Via the sarex mailing list at AMSAT.ORG courtesy of AMSAT-NA.
To unsubscribe, send "unsubscribe sarex" to Majordomo@amsat.org
AMSAT Home